Stations météo

réclame
Mon MeteoGroup
Aberdeen/Dyce, Grande-Bretagne (3091): Température de l'air & dewpoint: 18.06.2018 00:00:00 - 24.06.2018 00:00:00 (BST)Aberdeen/Dyce, Grande-Bretagne (3091): Température de l'air -20cm & Température de l'air -100cm: 18.06.2018 00:00:00 - 24.06.2018 00:00:00 (BST)Aberdeen/Dyce, Grande-Bretagne (3091): Vitesse du vent & gusts: 18.06.2018 00:00:00 - 24.06.2018 00:00:00 (BST)Aberdeen/Dyce, Grande-Bretagne (3091): Direction du vent: 18.06.2018 00:00:00 - 24.06.2018 00:00:00 (BST)Aberdeen/Dyce, Grande-Bretagne (3091): reduced air pressure: 18.06.2018 00:00:00 - 24.06.2018 00:00:00 (BST)Aberdeen/Dyce, Grande-Bretagne (3091): visibility: 18.06.2018 00:00:00 - 24.06.2018 00:00:00 (BST)Aberdeen/Dyce, Grande-Bretagne (3091): Ensoleillement: 18.06.2018 00:00:00 - 24.06.2018 00:00:00 (BST)Aberdeen/Dyce, Grande-Bretagne (3091): Quantités de précipitations: 18.06.2018 00:00:00 - 24.06.2018 00:00:00 (BST)
Date & Time tt [°C] td [°C] tt -20cm [°C] tt -100cm [°C] ff [km/h] ff [knt] fx [km/h] fx [knt] dd ppp [hPa] vv [km] sd [min] rr [mm]
24.06.2018 00:00:00 14,3 10,1 - - 5 3 - - - 1024,9 10 0 0,0
23.06.2018 23:00:00 14,9 10,1 - - 5 3 - - W 1025,2 10 0 0,0
23.06.2018 22:00:00 15,7 10,4 - - 15 8 - - NNW 1024,9 10 0 0,0
23.06.2018 21:00:00 16,8 10,7 - - 13 7 - - NNW 1024,6 10 0 0,0
23.06.2018 20:00:00 16,7 11,1 - - 13 7 - - NNW 1024,4 10 0 0,0
23.06.2018 19:00:00 17,2 10,6 - - 15 8 - - N 1024,1 10 0 0,0
23.06.2018 18:00:00 17,6 10,4 - - 8 4 - - NNW 1024,0 10 0 0,0
23.06.2018 17:00:00 16,6 9,3 - - 8 4 - - N 1024,3 10 0 0,0
23.06.2018 16:00:00 16,8 9,0 - - 8 4 - - SE 1024,3 10 0 0,0
23.06.2018 15:00:00 16,1 8,3 - - 16 9 - - S 1024,4 10 0 0,0
23.06.2018 14:00:00 18,2 5,9 - - 11 6 - - WSW 1024,5 10 24 0,0
23.06.2018 13:00:00 17,7 6,4 - - 18 10 - - SW 1025,1 10 60 0,0
23.06.2018 12:00:00 16,6 6,0 - - 16 9 - - W 1025,4 10 54 0,0
23.06.2018 11:00:00 15,4 6,6 - - 21 11 - - W 1025,8 10 36 0,0
23.06.2018 10:00:00 13,9 6,3 13,7 12,4 16 9 - - NW 1026,2 10 0 0,0
23.06.2018 09:00:00 12,9 6,0 - - 16 9 - - W 1026,3 10 6 0,0
23.06.2018 08:00:00 11,9 5,7 - - 13 7 - - W 1026,4 10 0 0,0
23.06.2018 07:00:00 11,6 5,6 - - 13 7 - - W 1026,5 10 0 0,0
23.06.2018 06:00:00 11,4 5,1 - - 15 8 - - W 1026,6 10 0 0,0
23.06.2018 05:00:00 11,2 5,3 - - 21 11 - - W 1026,7 10 0 0,0
23.06.2018 04:00:00 11,3 5,5 - - 24 13 - - WNW 1026,9 10 0 0,0
23.06.2018 03:00:00 11,3 5,9 - - 13 7 - - W 1027,1 10 0 0,0
23.06.2018 02:00:00 11,4 5,7 - - 9 5 - - W 1027,8 10 0 0,0
23.06.2018 01:00:00 11,4 6,3 - - 9 5 - - NW 1028,0 10 - 0,0
23.06.2018 00:00:00 11,9 6,4 - - 13 7 - - WNW 1028,3 10 0 0,0
22.06.2018 23:00:00 12,6 6,2 - - 13 7 - - W 1028,1 10 0 0,0
22.06.2018 22:00:00 13,8 6,1 - - 16 9 - - W 1027,8 10 0 0,0
22.06.2018 21:00:00 14,5 6,6 - - 13 7 - - NW 1027,7 10 18 0,0
22.06.2018 20:00:00 14,8 8,0 - - 11 6 - - N 1027,8 10 6 0,0
22.06.2018 19:00:00 16,1 7,8 - - 18 10 - - NNW 1027,8 10 6 0,0
22.06.2018 18:00:00 16,5 6,9 - - 22 12 - - NW 1027,7 10 6 0,0
22.06.2018 17:00:00 16,4 7,6 - - 21 11 - - NW 1028,2 10 18 0,0
22.06.2018 16:00:00 16,7 8,0 - - 21 11 - - NW 1028,3 10 12 0,0
22.06.2018 15:00:00 15,6 7,8 - - 22 12 - - NW 1028,8 10 18 0,0
22.06.2018 14:00:00 15,2 8,0 - - 24 13 - - NW 1029,3 10 12 0,0
22.06.2018 13:00:00 13,9 6,8 - - 22 12 - - WNW 1029,6 10 0 0,0
22.06.2018 12:00:00 14,1 6,2 - - 24 13 - - WNW 1029,5 10 0 0,0
22.06.2018 11:00:00 12,8 5,3 - - 22 12 - - NW 1029,4 10 0 0,0
22.06.2018 10:00:00 12,2 4,8 13,7 12,4 28 15 52 28 NW 1029,7 10 6 0,0
22.06.2018 09:00:00 11,5 5,2 - - 29 16 46 25 NW 1029,5 10 18 0,0
22.06.2018 08:00:00 10,8 5,3 - - 28 15 - - WNW 1029,5 10 24 0,0
22.06.2018 07:00:00 9,9 5,3 - - 22 12 - - WNW 1029,4 10 0 0,0
22.06.2018 06:00:00 9,3 5,1 - - 26 14 - - WNW 1029,1 10 18 0,0
22.06.2018 05:00:00 9,1 4,8 - - 29 16 - - NW 1028,6 10 0 0,0
22.06.2018 04:00:00 8,8 4,4 - - 31 17 46 25 NW 1028,4 10 0 0,0
22.06.2018 03:00:00 9,0 4,5 - - 28 15 48 26 WNW 1028,5 10 0 0,0
22.06.2018 02:00:00 9,4 4,5 - - 31 17 50 27 NW 1028,5 10 0 0,0
22.06.2018 01:00:00 9,7 4,6 - - 26 14 48 26 WNW 1028,3 10 - 0,0
22.06.2018 00:00:00 10,0 5,2 - - 31 17 50 27 WNW 1028,1 10 0 0,0
21.06.2018 23:00:00 10,9 4,3 - - 26 14 46 25 WNW 1027,8 10 0 0,0
21.06.2018 22:00:00 11,6 4,0 - - 35 19 55 30 NW 1027,2 10 30 0,0
21.06.2018 21:00:00 12,7 3,5 - - 31 17 61 33 NW 1026,8 10 60 0,0
21.06.2018 20:00:00 13,5 3,4 - - 29 16 65 35 NW 1026,1 10 60 0,0
21.06.2018 19:00:00 13,9 3,0 - - 48 26 67 36 NW 1025,8 10 48 0,0
21.06.2018 18:00:00 14,3 3,7 - - 44 24 70 38 NW 1025,2 10 42 0,0
21.06.2018 17:00:00 13,7 2,5 - - 44 24 72 39 NW 1024,8 10 0 0,0
21.06.2018 16:00:00 13,5 2,0 - - 41 22 68 37 NW 1024,4 10 0 0,0
21.06.2018 15:00:00 13,2 2,7 - - 44 24 68 37 NW 1024,0 10 6 0,0
21.06.2018 14:00:00 13,3 2,7 - - 46 25 72 39 NW 1023,4 10 42 0,0
21.06.2018 13:00:00 13,2 2,5 - - 44 24 68 37 NW 1023,1 10 54 0,0
21.06.2018 12:00:00 12,5 4,1 - - 42 23 70 38 NW 1022,5 10 18 0,0
21.06.2018 11:00:00 11,7 4,9 - - 41 22 57 31 NW 1021,8 10 6 0,0
21.06.2018 10:00:00 11,2 4,5 13,9 12,4 35 19 52 28 WNW 1021,5 10 24 0,0
21.06.2018 09:00:00 10,6 4,6 - - 35 19 54 29 NW 1021,2 10 36 0,0
21.06.2018 08:00:00 10,3 6,1 - - 29 16 - - NW 1020,8 10 54 0,0
21.06.2018 07:00:00 8,9 5,7 - - 28 15 - - WNW 1019,9 10 48 0,0
21.06.2018 06:00:00 8,1 5,5 - - 28 15 - - NW 1019,3 10 12 0,2
21.06.2018 05:00:00 7,6 5,6 - - 21 11 - - WNW 1018,6 10 0 0,0
21.06.2018 04:00:00 7,3 5,2 - - 31 17 48 26 WNW 1017,8 10 0 0,0
21.06.2018 03:00:00 6,7 5,1 - - 22 12 - - WNW 1017,0 10 0 0,0
21.06.2018 02:00:00 6,7 5,3 - - 21 11 - - WNW 1016,8 10 0 0,4
21.06.2018 01:00:00 6,7 5,0 - - 24 13 - - WNW 1016,4 10 - 0,2
21.06.2018 00:00:00 8,4 6,2 - - 29 16 46 25 WNW 1016,0 3,8 0 0,2
20.06.2018 23:00:00 9,8 7,6 - - 5 3 - - NW 1015,3 10 0 0,2
20.06.2018 22:00:00 10,6 7,8 - - 4 2 - - - 1015,3 10 0 0,0
20.06.2018 21:00:00 11,0 7,5 - - 4 2 - - - 1015,2 10 6 0,0
20.06.2018 20:00:00 11,0 9,2 - - 2 1 - - - 1015,2 10 0 0,0
20.06.2018 19:00:00 9,8 8,0 - - 8 4 - - E 1015,4 10 0 0,6
20.06.2018 18:00:00 10,4 8,3 - - 11 6 - - ESE 1015,7 10 0 0,4
20.06.2018 17:00:00 13,7 6,8 - - 11 6 - - W 1015,4 10 0 0,0
20.06.2018 16:00:00 13,7 7,0 - - 8 4 - - W 1015,4 10 0 0,0
20.06.2018 15:00:00 13,0 6,5 - - 13 7 - - NNW 1015,5 10 18 0,0
20.06.2018 14:00:00 13,0 5,8 - - 15 8 - - NW 1015,0 10 6 0,0
20.06.2018 13:00:00 12,1 6,5 - - 21 11 - - NNW 1014,7 10 6 0,0
20.06.2018 12:00:00 10,7 6,9 - - 22 12 - - N 1014,0 10 0 0,0
20.06.2018 11:00:00 11,2 8,5 - - 26 14 - - NNW 1013,2 10 0 0,0
20.06.2018 10:00:00 10,5 9,1 14,0 12,2 26 14 - - N 1012,1 10 0 0,0
20.06.2018 09:00:00 10,6 9,0 - - 22 12 - - NNW 1011,2 10 0 0,2
20.06.2018 08:00:00 9,3 8,7 - - 16 9 - - NNW 1011,0 9 0 1,8
20.06.2018 07:00:00 9,0 8,6 - - 15 8 - - NNW 1010,4 4,6 0 2,6
20.06.2018 06:00:00 8,7 8,4 - - 8 4 - - NNE 1009,7 3,5 0 1,4
20.06.2018 05:00:00 8,8 8,3 - - 9 5 - - NNE 1010,1 3,1 0 1,2
20.06.2018 04:00:00 9,2 8,7 - - 4 2 - - - 1011,2 6 0 0,6
20.06.2018 03:00:00 9,3 8,8 - - 5 3 - - NNE 1011,7 10 0 0,6
20.06.2018 02:00:00 9,3 8,5 - - 4 2 - - ESE 1012,8 10 0 0,8
20.06.2018 01:00:00 9,9 8,2 - - 9 5 - - S 1013,9 7 - 0,8
20.06.2018 00:00:00 10,2 8,9 - - 8 4 - - SSE 1014,1 10 0 0,8
19.06.2018 23:00:00 10,6 8,6 - - 5 3 - - - 1014,8 7 0 0,4
19.06.2018 22:00:00 11,6 7,9 - - 8 4 - - SSW 1015,1 10 0 0,4
19.06.2018 21:00:00 12,3 8,0 - - 8 4 - - E 1015,2 10 0 0,0
19.06.2018 20:00:00 12,7 6,1 - - 8 4 - - ENE 1015,3 10 0 0,0
19.06.2018 19:00:00 13,8 5,5 - - 16 9 - - ENE 1015,0 10 0 0,0
19.06.2018 18:00:00 16,8 3,4 - - 13 7 - - W 1015,2 10 0 0,0
19.06.2018 17:00:00 17,0 3,0 - - 13 7 - - WSW 1015,2 40 18 0,0
19.06.2018 16:00:00 17,4 3,3 - - 13 7 - - SW 1015,5 10 6 0,0
19.06.2018 15:00:00 16,9 3,3 - - 15 8 - - SW 1015,4 10 24 0,0
19.06.2018 14:00:00 16,7 3,6 - - 26 14 - - WNW 1015,5 10 30 0,0
19.06.2018 13:00:00 15,4 3,3 - - 22 12 - - SW 1015,8 10 0 0,0
19.06.2018 12:00:00 14,6 3,1 - - 16 9 - - WSW 1015,5 10 0 0,0
19.06.2018 11:00:00 14,3 2,6 - - 24 13 - - W 1015,2 10 0 0,0
19.06.2018 10:00:00 13,6 2,9 14,2 12,2 24 13 - - WSW 1014,7 10 6 0,0
19.06.2018 09:00:00 12,7 3,9 - - 22 12 - - WSW 1014,8 10 18 0,0
19.06.2018 08:00:00 11,6 4,2 - - 9 5 - - SW 1014,5 10 0 0,0
19.06.2018 07:00:00 10,9 3,7 - - 13 7 - - SSW 1013,6 10 0 0,0
19.06.2018 06:00:00 10,8 3,4 - - 24 13 - - WSW 1012,4 10 6 0,0
19.06.2018 05:00:00 9,4 3,2 - - 11 6 - - WSW 1012,1 10 0 0,0
19.06.2018 04:00:00 9,7 3,7 - - 16 9 - - WSW 1011,4 10 0 0,0
19.06.2018 03:00:00 8,6 2,6 - - 13 7 - - S 1011,1 45 0 0,0
19.06.2018 02:00:00 10,1 2,4 - - 18 10 - - WSW 1010,4 45 0 0,0
19.06.2018 01:00:00 10,6 2,2 - - 24 13 - - W 1010,1 45 - 0,0
19.06.2018 00:00:00 10,4 2,6 - - 15 8 - - SW 1010,2 10 0 0,0
18.06.2018 23:00:00 11,7 3,7 - - 15 8 - - SW 1009,7 10 0 0,0
18.06.2018 22:00:00 12,9 3,8 - - 16 9 46 25 W 1009,1 10 18 0,0
18.06.2018 21:00:00 14,3 5,0 - - 29 16 46 25 WSW 1008,6 10 0 0,0
18.06.2018 20:00:00 15,7 4,5 - - 18 10 50 27 W 1007,7 10 24 0,0
18.06.2018 19:00:00 16,5 3,0 - - 28 15 48 26 WSW 1007,3 10 30 0,0
18.06.2018 18:00:00 17,7 3,9 - - 21 11 50 27 WSW 1006,9 10 60 0,0
18.06.2018 17:00:00 18,4 4,0 - - 31 17 54 29 W 1007,0 10 30 0,0
18.06.2018 16:00:00 17,4 4,2 - - 29 16 54 29 WSW 1007,1 10 42 0,0
18.06.2018 15:00:00 17,9 5,1 - - 29 16 52 28 WSW 1007,4 30 48 0,0
18.06.2018 14:00:00 18,1 5,5 - - 26 14 - - WSW 1007,1 10 36 0,0
18.06.2018 13:00:00 16,8 4,5 - - 21 11 - - WSW 1007,6 10 30 0,0
18.06.2018 12:00:00 17,2 4,6 - - 26 14 48 26 WSW 1007,7 10 54 0,0
18.06.2018 11:00:00 16,4 4,9 - - 26 14 - - WSW 1007,6 10 60 0,0
18.06.2018 10:00:00 14,9 4,4 14,2 12,2 24 13 - - WSW 1007,9 10 36 0,0
18.06.2018 09:00:00 14,7 5,7 - - 16 9 - - WSW 1007,8 10 30 0,0
18.06.2018 08:00:00 13,9 5,7 - - 18 10 - - W 1007,5 10 42 0,0
18.06.2018 07:00:00 12,6 6,1 - - 11 6 - - WSW 1007,1 10 0 0,0
18.06.2018 06:00:00 12,8 5,9 - - 16 9 - - WSW 1006,3 10 0 0,0
18.06.2018 05:00:00 13,2 6,6 - - 13 7 - - SW 1006,2 10 0 0,0
18.06.2018 04:00:00 14,3 7,0 - - 9 5 - - - 1005,8 10 0 0,0
18.06.2018 03:00:00 14,1 9,6 - - 13 7 - - SW 1004,9 10 0 0,0
18.06.2018 02:00:00 13,5 11,1 - - 13 7 - - S 1005,0 10 0 0,0
18.06.2018 01:00:00 13,4 11,2 - - 13 7 - - SSW 1005,3 10 - 0,0
18.06.2018 00:00:00 13,2 11,2 - - 18 10 - - S 1005,3 10 0 0,0

tt = Température de l'air
td = dewpoint
tt -20cm = Température de l'air -20cm
tt -100cm = Température de l'air -100cm
ff = Vitesse du vent
fx = gusts
dd = Direction du vent
ppp = reduced air pressure
vv = visibility
sd = Ensoleillement
rr = Quantités de précipitations

stations d'obs. à proximité